This is the latest recevied weather packets stored in our database for station/object SP1BMW-13. If no packets are shown the sender has not sent any weather packets the latest 10 day(s).
| Time | Temp. | Humidity | Pressure | Rain* | Wind** | Luminosity | Snow |
|---|---|---|---|---|---|---|---|
| 1777388578 | 14.44° C | 28% | 1024.7 hPa | 0 mm | 2.24 m/s, 54° | 344 W/m² | - |
| 1777388458 | 13.89° C | 28% | 1024.5 hPa | 0 mm | 2.24 m/s, 344° | 350 W/m² | - |
| 1777388398 | 13.89° C | 31% | 1024.6 hPa | 0 mm | 0 m/s | 352 W/m² | - |
| 1777388338 | 13.89° C | 29% | 1024.7 hPa | 0 mm | 0.89 m/s, 36° | 356 W/m² | - |
| 1777388278 | 13.89° C | 30% | 1024.7 hPa | 0 mm | 0.45 m/s, 307° | 358 W/m² | - |
| 1777388218 | 13.89° C | 30% | 1024.7 hPa | 0 mm | 1.79 m/s, 7° | 361 W/m² | - |
| 1777388158 | 13.89° C | 30% | 1024.7 hPa | 0 mm | 3.13 m/s, 323° | 364 W/m² | - |
| 1777388098 | 13.89° C | 32% | 1024.6 hPa | 0 mm | 3.58 m/s, 320° | 367 W/m² | - |
| 1777388038 | 13.89° C | 31% | 1024.8 hPa | 0 mm | 2.68 m/s, 344° | 370 W/m² | - |
| 1777387978 | 13.89° C | 30% | 1024.7 hPa | 0 mm | 1.34 m/s, 54° | 373 W/m² | - |
| 1777387918 | 13.89° C | 31% | 1024.7 hPa | 0 mm | 2.68 m/s, 23° | 375 W/m² | - |
| 1777387859 | 13.89° C | 31% | 1024.7 hPa | 0 mm | 2.24 m/s, 43° | 378 W/m² | - |
| 1777387798 | 13.89° C | 30% | 1024.6 hPa | 0 mm | 1.34 m/s, 46° | 382 W/m² | - |
| 1777387738 | 13.89° C | 31% | 1024.7 hPa | 0 mm | 1.34 m/s, 13° | 385 W/m² | - |
| 1777387678 | 13.89° C | 31% | 1024.5 hPa | 0 mm | 2.68 m/s, 21° | 388 W/m² | - |
| 1777387618 | 13.89° C | 30% | 1024.7 hPa | 0 mm | 3.13 m/s, 43° | 390 W/m² | - |
| 1777387559 | 13.89° C | 29% | 1024.9 hPa | 0 mm | 3.13 m/s, 1° | 392 W/m² | - |
| 1777387498 | 13.89° C | 31% | 1024.8 hPa | 0 mm | 1.34 m/s, 35° | 395 W/m² | - |
| 1777387438 | 13.89° C | 30% | 1024.6 hPa | 0 mm | 2.68 m/s, 335° | 397 W/m² | - |
| 1777387379 | 14.44° C | 30% | 1024.6 hPa | 0 mm | 1.34 m/s, 58° | 400 W/m² | - |
| 1777387318 | 14.44° C | 29% | 1024.7 hPa | 0 mm | 2.24 m/s, 29° | 402 W/m² | - |
| 1777387258 | 13.89° C | 31% | 1024.7 hPa | 0 mm | 0.89 m/s, 79° | 404 W/m² | - |
| 1777387198 | 13.89° C | 30% | 1024.9 hPa | 0 mm | 2.68 m/s, 324° | 408 W/m² | - |
| 1777387138 | 13.89° C | 29% | 1024.7 hPa | 0 mm | 1.79 m/s, 343° | 411 W/m² | - |
| 1777387078 | 13.89° C | 30% | 1024.9 hPa | 0 mm | 1.79 m/s, 41° | 413 W/m² | - |
* Rain latest hour (hover to see other rain measurements)
** Current wind speed in m/s (hover to see current wind gust speed)